Date String (YYYY-MM-DD hh:mm:ss) UTC,Instrument flags,Ambient pressure (hPa),Sample flow (lpm),Bypass flow (lpm),Sample temperature (°C),Ambient temperature (°C),ASC tube jacket temperature (°C),LED temperature (°C),Box temperature (°C),Sample RH (%),Span deviation,Mass concentration (μg/m³),Mass concentration (μg/m³),Mass concentration (μg/m³)
DateTimeUTC,F1_M11,P_M11,Q1_M11,Q2_M11,T1_M11,T2_M11,T3_M11,T4_M11,T5_M11,U1_M11,ZSPAN_M11,X0_M11,X2_M11,X1_M11
2022-05-01 05:00:00,,0826.8,5.00,0.00,28.6,27.7,00.0,37.5,30.3,09.0,0000.0,0016.97,0004.59,0003.17
2022-05-01 05:01:00,,0826.7,5.02,0.00,28.6,27.7,00.0,37.5,30.3,09.0,0000.0,0016.76,0004.56,0003.17
2022-05-01 05:02:00,,0826.8,5.00,0.00,28.6,27.7,00.0,37.5,30.4,09.0,0000.0,0015.59,0004.55,0003.17
2022-05-01 05:03:00,,0826.8,4.99,0.00,28.6,27.6,00.0,37.5,30.4,09.0,0000.0,0015.48,0004.53,0003.17
2022-05-01 05:04:00,,0826.8,4.99,0.00,28.6,27.6,00.0,37.5,30.4,09.0,0000.0,0014.43,0004.45,0003.16
2022-05-01 05:05:00,,0826.8,5.00,0.00,28.6,27.6,00.0,37.5,30.3,09.0,0000.0,0013.70,0004.41,0003.15
2022-05-01 05:06:00,,0826.8,5.01,0.00,28.6,27.6,00.0,37.5,30.3,09.0,0000.0,0012.93,0004.37,0003.15
2022-05-01 05:07:00,,0826.8,4.98,0.00,28.6,27.6,00.0,37.5,30.3,09.0,0000.0,0012.11,0004.34,0003.15
2022-05-01 05:08:00,,0826.7,5.00,0.00,28.6,27.6,00.0,37.5,30.3,09.0,0000.0,0010.98,0004.33,0003.15
2022-05-01 05:09:00,,0826.7,5.01,0.00,28.6,27.6,00.0,37.5,30.3,09.0,0000.0,0010.87,0004.35,0003.14
2022-05-01 05:10:00,,0826.7,5.00,0.00,28.6,27.6,00.0,37.5,30.3,09.0,0000.0,0011.17,0004.33,0003.14
2022-05-01 05:11:00,,0826.7,4.99,0.00,28.6,27.6,00.0,37.5,30.3,09.0,0000.0,0011.70,0004.36,0003.15
2022-05-01 05:12:00,,0826.7,5.01,0.00,28.6,27.6,00.0,37.5,30.3,09.0,0000.0,0011.45,0004.35,0003.14
2022-05-01 05:13:00,,0826.7,4.99,0.00,28.6,27.6,00.0,37.5,30.3,09.0,0000.0,0011.87,0004.35,0003.15
2022-05-01 05:14:00,,0826.7,4.99,0.00,28.6,27.6,00.0,37.5,30.3,09.0,0000.0,0013.09,0004.37,0003.14
2022-05-01 05:15:00,,0826.7,5.01,0.00,28.6,27.6,00.0,37.5,30.3,09.0,0000.0,0013.18,0004.37,0003.13
2022-05-01 05:16:00,,0826.7,4.99,0.00,28.5,27.6,00.0,37.5,30.3,09.1,0000.0,0014.69,0004.34,0003.12
2022-05-01 05:17:00,,0826.7,5.01,0.00,28.5,27.6,00.0,37.5,30.3,09.1,0000.0,0015.30,0004.34,0003.11
2022-05-01 05:18:00,,0826.7,4.99,0.00,28.5,27.6,00.0,37.4,30.3,09.1,0000.0,0015.98,0004.34,0003.09
2022-05-01 05:19:00,,0826.7,4.99,0.00,28.5,27.6,00.0,37.5,30.3,09.1,0000.0,0016.16,0004.30,0003.08
2022-05-01 05:20:00,,0826.7,5.02,0.00,28.5,27.6,00.0,37.5,30.3,09.1,0000.0,0016.42,0004.26,0003.11
2022-05-01 05:21:00,,0826.7,4.99,0.00,28.5,27.6,00.0,37.4,30.3,09.1,0000.0,0016.63,0004.22,0003.10
2022-05-01 05:22:00,,0826.7,5.00,0.00,28.5,27.6,00.0,37.4,30.3,09.1,0000.0,0015.90,0004.25,0003.10
2022-05-01 05:23:00,,0826.7,4.99,0.00,28.5,27.6,00.0,37.4,30.3,09.1,0000.0,0015.72,0004.28,0003.11
2022-05-01 05:24:00,,0826.7,5.00,0.00,28.5,27.6,00.0,37.4,30.3,09.1,0000.0,0015.56,0004.26,0003.09
2022-05-01 05:25:00,,0826.7,5.00,0.00,28.5,27.6,00.0,37.4,30.3,09.1,0000.0,0014.67,0004.27,0003.10
2022-05-01 05:26:00,,0826.7,4.99,0.00,28.5,27.6,00.0,37.4,30.3,09.1,0000.0,0014.49,0004.30,0003.12
2022-05-01 05:27:00,,0826.7,5.02,0.00,28.5,27.6,00.0,37.4,30.3,09.1,0000.0,0013.23,0004.30,0003.13
2022-05-01 05:28:00,,0826.7,5.00,0.00,28.5,27.6,00.0,37.4,30.3,09.1,0000.0,0012.76,0004.28,0003.14
2022-05-01 05:29:00,,0826.7,5.01,0.00,28.5,27.6,00.0,37.4,30.3,09.1,0000.0,0012.14,0004.22,0003.16
2022-05-01 05:30:00,,0826.7,5.00,0.00,28.5,27.5,00.0,37.4,30.3,09.1,0000.0,0012.46,0004.23,0003.17
2022-05-01 05:31:00,,0826.7,4.99,0.00,28.5,27.5,00.0,37.4,30.2,09.1,0000.0,0013.09,0004.28,0003.18
2022-05-01 05:32:00,,0826.7,4.99,0.00,28.5,27.5,00.0,37.4,30.2,09.1,0000.0,0012.78,0004.28,0003.18
2022-05-01 05:33:00,,0826.7,5.02,0.00,28.5,27.5,00.0,37.4,30.2,09.1,0000.0,0013.78,0004.24,0003.19
2022-05-01 05:34:00,,0826.7,4.99,0.00,28.4,27.5,00.0,37.4,30.2,09.1,0000.0,0014.04,0004.18,0003.18
2022-05-01 05:35:00,,0826.7,4.99,0.00,28.4,27.5,00.0,37.4,30.2,09.1,0000.0,0014.07,0004.19,0003.18
2022-05-01 05:36:00,,0826.7,5.02,0.00,28.4,27.5,00.0,37.4,30.2,09.1,0000.0,0014.29,0004.18,0003.18
2022-05-01 05:37:00,,0826.7,4.99,0.00,28.4,27.5,00.0,37.4,30.2,09.1,0000.0,0014.59,0004.18,0003.17
2022-05-01 05:38:00,,0826.7,4.99,0.00,28.4,27.5,00.0,37.4,30.2,09.1,0000.0,0014.82,0004.20,0003.18
2022-05-01 05:39:00,,0826.8,5.01,0.00,28.4,27.5,00.0,37.4,30.2,09.1,0000.0,0014.88,0004.24,0003.18
2022-05-01 05:40:00,,0826.8,5.01,0.00,28.4,27.5,00.0,37.4,30.2,09.1,0000.0,0015.39,0004.29,0003.18
2022-05-01 05:41:00,,0826.8,4.99,0.00,28.4,27.5,00.0,37.4,30.2,09.1,0000.0,0014.94,0004.33,0003.19
2022-05-01 05:42:00,,0826.7,4.99,0.00,28.4,27.5,00.0,37.4,30.2,09.2,0000.0,0014.59,0004.32,0003.18
2022-05-01 05:43:00,,0826.7,5.02,0.00,28.4,27.5,00.0,37.4,30.2,09.2,0000.0,0014.50,0004.35,0003.19
2022-05-01 05:44:00,,0826.7,4.99,0.00,28.4,27.5,00.0,37.4,30.2,09.2,0000.0,0013.34,0004.36,0003.19
2022-05-01 05:45:00,,0826.6,5.00,0.00,28.4,27.5,00.0,37.4,30.2,09.2,0000.0,0013.10,0004.39,0003.19
2022-05-01 05:46:00,,0826.6,5.01,0.00,28.4,27.4,00.0,37.3,30.2,09.2,0000.0,0012.94,0004.41,0003.20
2022-05-01 05:47:00,,0826.6,4.98,0.00,28.4,27.4,00.0,37.3,30.1,09.2,0000.0,0012.90,0004.47,0003.21
2022-05-01 05:48:00,,0826.6,5.00,0.00,28.4,27.4,00.0,37.3,30.1,09.2,0000.0,0013.49,0004.50,0003.22
2022-05-01 05:49:00,,0826.6,5.01,0.00,28.4,27.4,00.0,37.3,30.1,09.2,0000.0,0013.98,0004.51,0003.23
2022-05-01 05:50:00,,0826.6,4.99,0.00,28.4,27.4,00.0,37.3,30.1,09.3,0000.0,0014.47,0004.50,0003.23
2022-05-01 05:51:00,,0826.6,4.99,0.00,28.3,27.4,00.0,37.3,30.1,09.3,0000.0,0015.86,0004.54,0003.24
2022-05-01 05:52:00,,0826.6,5.02,0.00,28.3,27.4,00.0,37.3,30.1,09.3,0000.0,0016.16,0004.54,0003.22
2022-05-01 05:53:00,,0826.6,4.99,0.00,28.3,27.3,00.0,37.3,30.1,09.3,0000.0,0016.57,0004.51,0003.22
2022-05-01 05:54:00,,0826.6,5.01,0.00,28.3,27.3,00.0,37.3,30.0,09.3,0000.0,0016.33,0004.51,0003.22
2022-05-01 05:55:00,,0826.6,4.98,0.00,28.3,27.3,00.0,37.3,30.0,09.3,0000.0,0017.61,0004.55,0003.21
2022-05-01 05:56:00,,0826.7,4.98,0.00,28.3,27.3,00.0,37.3,30.0,09.4,0000.0,0017.40,0004.52,0003.22
2022-05-01 05:57:00,,0826.7,5.02,0.00,28.3,27.3,00.0,37.3,30.0,09.4,0000.0,0017.87,0004.51,0003.22
2022-05-01 05:58:00,,0826.7,4.99,0.00,28.3,27.3,00.0,37.3,30.0,09.4,0000.0,0017.98,0004.52,0003.23
2022-05-01 05:59:00,,0826.7,5.00,0.00,28.3,27.3,00.0,37.2,30.0,09.4,0000.0,0018.23,0004.50,0003.23
